Pontiac, MI

9:03 PM EDT on April 30, 2017 (GMT -0400)
Oakland County International

Weather History for KPTK - June, 2013

Change the Weather History Date:

Thursday, June 27, 2013

  Actual Average Record
Temperature  
Mean Temperature 74 °F -  
Max Temperature 82 °F 80 °F 93 °F (2005)
Min Temperature 54 °F 59 °F 51 °F (2004)
Cooling Degree Days 8    
Growing Degree Days 24 (Base 50)    
Moisture  
Dew Point 66 °F    
Average Humidity 84    
Maximum Humidity 94    
Minimum Humidity 56    
Precipitation  
Precipitation 0.33 in - - ()
Sea Level Pressure  
Sea Level Pressure 29.71 in    
Wind  
Wind Speed 4 mph (South)    
Max Wind Speed 25 mph    
Max Gust Speed 36 mph    
Visibility 7 miles    
Events Fog , Rain , Thunderstorm    
Averages and records for this station are not official NWS values.
T = Trace of Precipitation, MM = Missing Value Source: NWS Daily Summary

Daily Weather History Graph

Daily Weather History Graph

Search for Another Location

Airport or City:

Trip Planner

Search our weather history database for the weather conditions in past years. The results will help you decide how hot, cold, wet, or windy it might be!

Date:

Astronomy

Jun. 27, 2013 Rise Set
Actual Time 5:57 AM EDT 9:15 PM EDT
Civil Twilight 5:22 AM EDT 9:50 PM EDT
Nautical Twilight 4:37 AM EDT 10:35 PM EDT
Astronomical Twilight 3:41 AM EDT 11:31 PM EDT
Moon No Moon Rise 11:04 AM EDT (6/27)
Length of Visible Light 16h 27m
Length of Day
15h 17m
Waning Gibbous, 76% of the Moon is Illuminated
Jun 27
Waning Gibbous
Jun 30
Last Quarter
Jul 8
New
Jul 15
First Quarter
Jul 22
Full

Hourly Weather History & Observations

Time (EDT) Temp. Heat Index Dew Point Humidity Pressure Visibility Wind Dir Wind Speed Gust Speed Precip Events Conditions
12:53 AM 73.9 °F - 66.0 °F 76% 29.76 in 10.0 mi Calm Calm - N/A   Clear
1:53 AM 73.0 °F - 66.9 °F 81% 29.74 in 10.0 mi ENE 3.5 mph - N/A   Mostly Cloudy
2:53 AM 72.0 °F - 68.0 °F 87% 29.73 in 10.0 mi Calm Calm - 0.00 in   Scattered Clouds
3:53 AM 72.0 °F - 68.0 °F 87% 29.73 in 10.0 mi Calm Calm - N/A   Mostly Cloudy
4:32 AM 71.6 °F - 69.8 °F 94% 29.75 in 9.0 mi Calm Calm - 0.01 in Rain Light Rain
4:53 AM 71.1 °F - 69.1 °F 93% 29.73 in 9.0 mi Calm Calm - 0.01 in Rain Light Rain
5:03 AM 71.6 °F - 69.8 °F 94% 29.75 in 9.0 mi Calm Calm - 0.00 in Rain Light Rain
5:13 AM 71.6 °F - 69.8 °F 94% 29.75 in 10.0 mi Calm Calm - 0.01 in Rain Light Rain
5:53 AM 71.1 °F - 69.1 °F 93% 29.73 in 9.0 mi Calm Calm - 0.01 in   Overcast
6:15 AM 71.6 °F - 69.8 °F 94% 29.75 in 8.0 mi WNW 3.5 mph - N/A   Overcast
6:38 AM 71.6 °F - 69.8 °F 94% 29.75 in 9.0 mi WNW 5.8 mph - N/A   Overcast
6:53 AM 71.1 °F - 68.0 °F 90% 29.73 in 9.0 mi WNW 3.5 mph - N/A   Overcast
7:53 AM 71.1 °F - 68.0 °F 90% 29.74 in 8.0 mi Calm Calm - 0.01 in Rain Light Rain
8:15 AM 71.6 °F - 68.0 °F 88% 29.75 in 9.0 mi Calm Calm - N/A   Mostly Cloudy
8:53 AM 73.0 °F - 69.1 °F 87% 29.72 in 9.0 mi Calm Calm - N/A   Mostly Cloudy
9:31 AM 73.4 °F - 69.8 °F 88% 29.75 in 7.0 mi North 4.6 mph - N/A   Mostly Cloudy
9:53 AM 75.0 °F - 69.1 °F 82% 29.73 in 7.0 mi North 4.6 mph - N/A   Mostly Cloudy
10:20 AM 75.2 °F - 69.8 °F 83% 29.74 in 8.0 mi Variable 5.8 mph - N/A   Mostly Cloudy
10:53 AM 75.9 °F - 68.0 °F 76% 29.72 in 9.0 mi Calm Calm - N/A   Mostly Cloudy
11:53 AM 78.1 °F - 68.0 °F 71% 29.72 in 9.0 mi Calm Calm - N/A   Mostly Cloudy
12:23 PM 78.8 °F - 68.0 °F 69% 29.74 in 10.0 mi SW 5.8 mph - N/A   Scattered Clouds
12:53 PM 81.0 °F 83.8 °F 68.0 °F 65% 29.71 in 10.0 mi SE 6.9 mph - N/A   Scattered Clouds
1:53 PM 81.0 °F 82.5 °F 64.0 °F 56% 29.69 in 10.0 mi SE 9.2 mph - N/A   Mostly Cloudy
2:53 PM 82.0 °F 84.1 °F 66.0 °F 58% 29.67 in 10.0 mi SE 9.2 mph - 0.01 in   Mostly Cloudy
3:53 PM 79.0 °F - 64.9 °F 62% 29.66 in 10.0 mi SSW 10.4 mph - 0.00 in   Overcast
4:50 PM 71.6 °F - 69.8 °F 94% 29.68 in 0.8 mi South 12.7 mph 24.2 mph 0.21 in Rain Light Rain
4:51 PM 71.6 °F - 68.0 °F 88% 29.68 in 0.8 mi South 10.4 mph 24.2 mph 0.23 in Rain Heavy Rain
4:53 PM 71.1 °F - 68.0 °F 90% 29.68 in 1.0 mi Variable 5.8 mph 24.2 mph 0.29 in Rain Heavy Rain
4:58 PM 69.8 °F - 66.2 °F 88% 29.73 in 2.0 mi North 25.3 mph 34.5 mph N/A Rain , Thunderstorm Heavy Thunderstorms and Rain
5:03 PM 68.0 °F - 64.4 °F 88% 29.72 in 0.5 mi NNE 23.0 mph 35.7 mph N/A Fog , Rain , Thunderstorm Heavy Thunderstorms and Rain
5:32 PM 68.0 °F - 64.4 °F 88% 29.73 in 1.5 mi NNE 18.4 mph - N/A Rain , Thunderstorm Thunderstorms and Rain
5:38 PM 68.0 °F - 64.4 °F 88% 29.73 in 3.0 mi NNE 18.4 mph - N/A Rain , Thunderstorm Light Thunderstorms and Rain
5:53 PM 68.5 °F - 64.0 °F 85% 29.71 in 4.0 mi ENE 8.1 mph - N/A Rain , Thunderstorm Light Thunderstorms and Rain
6:37 PM 66.2 °F - 60.8 °F 83% 29.73 in 5.0 mi Calm Calm - N/A Rain , Thunderstorm Light Thunderstorms and Rain
6:53 PM 67.1 °F - 62.1 °F 84% 29.69 in 4.0 mi Calm Calm - N/A Rain , Thunderstorm Light Thunderstorms and Rain
7:13 PM 66.2 °F - 62.6 °F 88% 29.69 in 7.0 mi Variable 3.5 mph - N/A Rain , Thunderstorm Light Thunderstorms and Rain
7:17 PM 66.2 °F - 62.6 °F 88% 29.70 in 7.0 mi Variable 3.5 mph - N/A Rain Light Rain
7:53 PM 67.8 °F - 63.5 °F 86% 29.69 in 7.0 mi SSE 10.4 mph - N/A   Mostly Cloudy
8:28 PM 68.0 °F - 64.4 °F 88% 29.70 in 9.0 mi SSE 9.2 mph - N/A Rain Light Rain
8:35 PM 68.0 °F - 64.4 °F 88% 29.70 in 9.0 mi Calm Calm - N/A Rain Light Rain
8:53 PM 67.3 °F - 62.6 °F 85% 29.68 in 9.0 mi Variable 3.5 mph - N/A   Mostly Cloudy
9:53 PM 65.5 °F - 61.9 °F 88% 29.66 in 7.0 mi Calm Calm - N/A   Mostly Cloudy
10:53 PM 66.7 °F - 63.5 °F 89% 29.63 in 8.0 mi WSW 5.8 mph - N/A   Mostly Cloudy
11:53 PM 54.9 °F - 50.5 °F 85% 29.64 in 9.0 mi SW 3.5 mph - N/A   Mostly Cloudy